Погода в Темуко

Чили     38°44′00″S   72°35′41″W
темп.,
°C
ветер,
м/с
пор.,
м/с
влажн.,
%
обл.,
%
осадки,
мм/ч
давл.,
гПа
погр.,
м
1 августа, вс
вс123:00+3юз11942 0.0 102912
02:00+2сз009588 0.0 102810
05:00+1юз11957 0.0 102711
08:00+1вюв00925 0.0 102710
11:00+9ююз12604 0.0 1026202
14:00+14юз245128 0.0 1024390
17:00+12юз237411 0.0 102365
20:00+6зюз119413 0.0 102518
2 августа, пн
пн223:00+4юз11955 0.0 102411
02:00+3юз11943 0.0 102511
05:00+3юз11915 0.0 102410
08:00+2юз119042 0.0 102510
11:00+9юз236597 0.0 1025265
14:00+13юз3557100 0.0 1023456
17:00+12юз237797 0.0 102385
20:00+7юз11950 0.0 102417
3 августа, вт
вт323:00+6юз22979 0.0 102427
02:00+5ююз119792 0.0 102413
05:00+5ююз119833 0.0 102317
08:00+5юз11989 0.0 102320
11:00+11ююз258214 0.0 1022344
14:00+15ююз35691 0.0 1019527
17:00+14юз24824 0.0 1018162
20:00+9ююз11950 0.0 101810
4 августа, ср
ср423:00+7юв01971 0.0 101710
02:00+6в11960 0.0 101610
05:00+5св11931 0.0 101510
08:00+5всв218854 0.0 101511
11:00+13св126028 0.0 1015191
14:00+18ссз1353100 0.0 1013320
17:00+15ссв0076100 0.0 101311
20:00+10ссв1185100 0.0 101511
5 августа, чт
чт523:00+9с1184100 0.0 101613
02:00+7ссв1189100 0.0 101712
05:00+6всв1194100 0.0 101812
08:00+6св119431 0.0 101919
11:00+13с1468100 0.0 1018353
14:00+16сз1358100 0.0 1017656
17:00+13зюз0077100 0.0 101710
20:00+10св0088100 0.0 101810